DW5338 Weather Reports


Display with metric or nautical units.
time (UTC)temp
F
wind
direction
speed
MPH
gust
MPH
rain 1hr
in
rain 24hr
in
rain mn
in
humidity
%
barometer
mb
20260903133016 59 203 4.0 10.0 0.00 0.03 0.00 50 1023.4
20260903132022 59 203 5.0 12.0 0.00 0.03 0.00 50 1023.6
20260903131017 58 203 5.0 9.0 0.00 0.03 0.00 52 1023.3
20260903130022 57 203 5.0 9.0 0.00 0.03 0.00 53 1023.3
20260903125016 57 203 5.0 10.0 0.00 0.03 0.00 54 1023.1
20260903124022 56 203 5.0 8.0 0.00 0.03 0.00 55 1023.0
20260903123017 56 225 4.0 8.0 0.00 0.03 0.00 54 1023.0
20260903122022 55 203 5.0 8.0 0.00 0.03 0.00 56 1022.9
20260903121022 55 203 4.0 8.0 0.00 0.03 0.00 56 1022.9
20260903120022 54 225 5.0 8.0 0.00 0.03 0.00 58 1022.7
20260903115042 54 203 4.0 8.0 0.00 0.03 0.00 59 1022.1
20260903114022 54 203 4.0 7.0 0.00 0.03 0.00 60 1022.2
20260903113022 54 225 4.0 7.0 0.00 0.03 0.00 59 1022.1
20260903112017 54 225 4.0 6.0 0.00 0.03 0.00 59 1021.9
20260903111022 54 225 4.0 6.0 0.00 0.03 0.00 60 1021.8
20260903110022 55 225 4.0 6.0 0.00 0.03 0.00 58 1022.1
20260903105022 55 225 3.0 6.0 0.00 0.03 0.00 58 1023.0
20260903104042 54 225 4.0 6.0 0.00 0.03 0.00 59 1022.8
20260903103016 55 225 4.0 7.0 0.00 0.03 0.00 59 1022.9
20260903102016 55 225 4.0 6.0 0.00 0.03 0.00 58 1023.0
20260903101016 55 203 4.0 5.0 0.00 0.03 0.00 58 1022.9
20260903100016 56 225 4.0 6.0 0.00 0.03 0.00 58 1023.3
20260903095022 56 225 5.0 8.0 0.00 0.03 0.00 57 1023.4
20260903094042 57 225 5.0 10.0 0.00 0.03 0.00 55 1023.6
20260903093016 57 203 4.0 7.0 0.00 0.03 0.00 54 1023.5
20260903092036 58 225 4.0 8.0 0.00 0.03 0.00 54 1023.8
20260903091022 57 225 5.0 8.0 0.00 0.03 0.00 54 1023.6
20260903090036 57 203 5.0 11.0 0.00 0.03 0.00 54 1023.5
20260903085021 56 225 6.0 10.0 0.00 0.03 0.00 54 1023.3
20260903084101 57 225 5.0 9.0 0.00 0.03 0.00 52 1023.3
20260903083041 57 225 6.0 11.0 0.00 0.03 0.00 51 1023.3
20260903082021 56 225 5.0 9.0 0.00 0.03 0.00 51 1023.1
20260903081036 56 203 5.0 9.0 0.00 0.03 0.00 52 1023.2
20260903080021 57 203 5.0 8.0 0.00 0.03 0.00 50 1023.5
20260903075016 58 225 5.0 7.0 0.00 0.03 0.00 49 1023.6
20260903074021 59 203 4.0 6.0 0.00 0.03 0.00 48 1023.7
20260903073022 60 225 4.0 6.0 0.00 0.03 0.00 44 1023.9
20260903072036 62 203 3.0 5.0 0.00 0.03 0.00 42 1024.0
20260903071016 61 203 3.0 5.0 0.00 0.03 0.00 43 1024.1
20260903070022 61 203 3.0 4.0 0.00 0.03 0.00 44 1024.1
20260903065021 61 225 3.0 5.0 0.00 0.03 0.00 45 1024.4
20260903064016 60 270 4.0 7.0 0.00 0.03 0.00 48 1024.3
20260903063021 60 203 3.0 6.0 0.00 0.03 0.00 48 1024.2
20260903062016 59 225 3.0 7.0 0.00 0.03 0.00 51 1024.0
20260903061016 59 203 4.0 8.0 0.00 0.03 0.00 53 1023.9
20260903060016 60 225 4.0 6.0 0.00 0.03 0.03 51 1023.9
20260903055021 60 225 2.0 4.0 0.00 0.03 0.03 49 1023.9
20260903054041 60 248 1.0 3.0 0.00 0.03 0.03 49 1023.9
20260903053016 61 225 2.0 4.0 0.00 0.03 0.03 48 1023.9
20260903052021 61 225 1.0 2.0 0.00 0.03 0.03 48 1024.5
20260903051021 62 270 2.0 4.0 0.00 0.03 0.03 47 1024.5
20260903050021 61 225 1.0 2.0 0.00 0.03 0.03 48 1024.3
20260903045021 61 203 2.0 4.0 0.00 0.03 0.03 49 1024.1
20260903044021 60 180 2.0 4.0 0.00 0.03 0.03 50 1024.0
20260903043021 60 113 1.0 3.0 0.00 0.03 0.03 52 1024.3
20260903042041 60 180 2.0 3.0 0.00 0.03 0.03 53 1024.5
20260903041016 60 180 2.0 4.0 0.00 0.03 0.03 52 1024.3
20260903040041 60 203 2.0 5.0 0.00 0.03 0.03 51 1024.3
20260903035021 60 180 2.0 5.0 0.00 0.03 0.03 51 1024.1
20260903034021 61 203 4.0 8.0 0.00 0.03 0.03 50 1024.2
20260903033021 61 225 6.0 10.0 0.00 0.03 0.03 48 1024.2
20260903032021 61 225 5.0 9.0 0.00 0.03 0.03 50 1024.2
20260903031021 61 225 4.0 7.0 0.00 0.03 0.03 49 1024.3
20260903030021 61 225 5.0 9.0 0.00 0.03 0.03 49 1024.3
20260903025021 61 225 4.0 7.0 0.00 0.03 0.03 51 1023.9
20260903024015 61 225 4.0 8.0 0.00 0.03 0.03 51 1023.9
20260903023021 61 225 5.0 9.0 0.00 0.03 0.03 50 1023.7
20260903022021 61 225 4.0 7.0 0.00 0.03 0.03 50 1023.5
20260903021015 62 225 4.0 9.0 0.00 0.03 0.03 49 1023.7
20260903020021 62 225 4.0 8.0 0.00 0.03 0.03 47 1023.6
20260903015021 63 248 5.0 10.0 0.00 0.03 0.03 46 1023.3
20260903014021 63 225 5.0 11.0 0.00 0.03 0.03 50 1023.3
20260903013015 63 203 5.0 10.0 0.00 0.03 0.03 51 1023.4
20260903012021 63 225 4.0 9.0 0.00 0.03 0.03 50 1023.2
20260903011015 64 203 4.0 7.0 0.00 0.03 0.03 48 1023.2
20260903010041 64 203 4.0 8.0 0.00 0.03 0.03 47 1023.1
20260903005021 65 225 3.0 6.0 0.00 0.03 0.03 48 1023.3
20260903004021 65 270 6.0 10.0 0.00 0.03 0.03 45 1023.2
20260903003015 65 270 7.0 12.0 0.00 0.03 0.03 47 1023.4
20260903002021 66 203 5.0 10.0 0.00 0.03 0.03 49 1023.7
20260903001021 66 225 2.0 4.0 0.00 0.03 0.03 47 1023.4
20260903000016 67 203 2.0 6.0 0.01 0.03 0.03 47 1023.3
20260902235041 67 270 1.0 3.0 0.01 0.03 0.03 45 1023.1
20260902234021 66 293 3.0 4.0 0.01 0.03 0.03 48 1023.1
20260902233015 65 293 4.0 6.0 0.03 0.03 0.03 50 1023.0
20260902232015 63 270 4.0 10.0 0.03 0.03 0.03 59 1023.1
20260902231021 60 203 5.0 8.0 0.03 0.03 0.03 68 1023.3
20260902230015 60 203 4.0 8.0 0.02 0.02 0.02 59 1023.6
20260902225021 61 158 2.0 6.0 0.02 0.02 0.02 58 1023.6
20260902224101 63 180 9.0 18.0 0.02 0.02 0.02 52 1023.5
20260902223021 69 180 2.0 5.0 0.00 0.00 0.00 38 1023.8
20260902222015 69 270 3.0 9.0 0.00 0.00 0.00 36 1023.3
20260902221021 70 315 7.0 10.0 0.00 0.00 0.00 35 1023.1
20260902220021 70 315 4.0 6.0 0.00 0.00 0.00 34 1023.0
20260902215021 70 45 1.0 3.0 0.00 0.00 0.00 36 1023.5
20260902214015 70 113 5.0 10.0 0.00 0.00 0.00 34 1023.4
20260902213055 70 68 4.0 10.0 0.00 0.00 0.00 33 1023.5
20260902212021 71 113 4.0 9.0 0.00 0.00 0.00 33 1023.5
20260902211021 72 135 4.0 11.0 0.00 0.00 0.00 32 1023.7
20260902210021 73 90 4.0 11.0 0.00 0.00 0.00 31 1024.1
20260902205020 72 135 4.0 11.0 0.00 0.00 0.00 33 1023.9
20260902204020 71 45 6.0 14.0 0.00 0.00 0.00 35 1024.1
20260902203021 70 68 6.0 12.0 0.00 0.00 0.00 35 1024.1
20260902202035 70 45 4.0 10.0 0.00 0.00 0.00 35 1024.4
20260902201020 70 113 2.0 4.0 0.00 0.00 0.00 34 1024.3
20260902200021 69 68 3.0 7.0 0.00 0.00 0.00 35 1024.4
20260902195020 69 90 5.0 10.0 0.00 0.00 0.00 35 1024.6
20260902194040 69 113 6.0 12.0 0.00 0.00 0.00 35 1024.7
20260902193020 69 68 4.0 8.0 0.00 0.00 0.00 35 1024.7
20260902192020 70 113 4.0 11.0 0.00 0.00 0.00 34 1024.8
20260902191021 69 23 5.0 14.0 0.00 0.00 0.00 37 1024.7
20260902190020 69 68 8.0 15.0 0.00 0.00 0.00 36 1024.7
20260902185020 69 45 5.0 15.0 0.00 0.00 0.00 36 1024.7
20260902184015 71 68 5.0 13.0 0.00 0.00 0.00 34 1025.1
20260902183020 72 68 3.0 8.0 0.00 0.00 0.00 32 1025.2
20260902182020 71 248 7.0 12.0 0.00 0.00 0.00 30 1025.2
20260902181021 71 270 10.0 17.0 0.00 0.00 0.00 30 1025.3
20260902180015 71 270 8.0 15.0 0.00 0.00 0.00 33 1025.3
20260902175020 70 248 7.0 15.0 0.00 0.00 0.00 33 1025.5
20260902174015 70 270 8.0 20.0 0.00 0.00 0.00 34 1025.4
20260902173020 69 270 9.0 18.0 0.00 0.00 0.00 34 1025.5
20260902172020 68 270 10.0 17.0 0.00 0.00 0.00 34 1025.5
20260902171015 69 270 9.0 16.0 0.00 0.00 0.00 34 1025.6
20260902170042 69 225 4.0 11.0 0.00 0.00 0.00 35 1026.1
20260902165022 70 203 4.0 10.0 0.00 0.00 0.00 35 1026.3
20260902164022 69 248 3.0 9.0 0.00 0.00 0.00 35 1026.2
20260902163016 68 203 6.0 14.0 0.00 0.00 0.00 35 1026.0
20260902162022 68 270 2.0 9.0 0.00 0.00 0.00 36 1026.2
20260902161022 67 270 8.0 17.0 0.00 0.00 0.00 35 1026.1
20260902160022 68 180 5.0 11.0 0.00 0.00 0.00 35 1026.2
20260902155016 68 248 4.0 11.0 0.00 0.00 0.00 36 1026.2
20260902154017 67 225 8.0 16.0 0.00 0.00 0.00 35 1025.9
20260902153022 67 270 3.0 7.0 0.00 0.00 0.00 35 1025.8
20260902152017 67 225 3.0 11.0 0.00 0.00 0.00 36 1026.1
20260902151016 66 270 5.0 12.0 0.00 0.00 0.00 36 1026.0
20260902150022 65 270 13.0 21.0 0.00 0.00 0.00 37 1025.9
20260902145022 67 203 4.0 12.0 0.00 0.00 0.00 36 1026.1
20260902144016 66 315 4.0 11.0 0.00 0.00 0.00 35 1026.0
20260902143022 65 248 3.0 12.0 0.00 0.00 0.00 36 1025.7
20260902142016 64 225 4.0 12.0 0.00 0.00 0.00 38 1025.7
20260902141022 63 225 4.0 8.0 0.00 0.00 0.00 40 1025.8
20260902140020 62 180 3.0 8.0 0.00 0.00 0.00 40 1025.4
20260902135017 62 248 5.0 10.0 0.00 0.00 0.00 41 1025.4
20260902134057 61 180 4.0 10.0 0.00 0.00 0.00 41 1025.5